This demonstration page uses our WeatherBlox Daily Observations layout. Learn more.

Left ArrowRight Arrow

44.8408, -93.29828

Hourly Observations for September 4, 2019

Temp ( °F °C ) Dew Point ( °F °C ) Humidity (%) Winds ( mph kmh ) Pressure ( in mb ) Visibility ( mi km ) Precip ( " mm )
12:53 am 00:53 Cloudy 62 16.7 49 9.4 62 62 NW 14 22 30.06 1018 10 16 0.00 0.00
1:53 am 01:53 Mostly Cloudy 61 16.1 50 10 67 67 NNW 8 13 30.06 1018 10 16 0.00 0.00
2:53 am 02:53 Cloudy 60 15.6 50 10 70 70 N 9 15 30.06 1018 10 16 0.00 0.00
3:53 am 03:53 Cloudy 60 15.6 51 10.6 72 72 N 8 13 30.08 1019 10 16 0.00 0.00
4:53 am 04:53 Cloudy 60 15.6 51 10.6 72 72 N 10 17 30.10 1019 10 16 0.00 0.00
5:00 am 05:00 Cloudy 60 15.6 51 10.6 72 72 N 7 11 30.10 1019 10 16 0.00 0.00
5:53 am 05:53 Cloudy 59 15 49 9.4 69 69 NNE 8 13 30.12 1020 10 16 0.00 0.00
6:08 am 06:08 Cloudy 58 14.4 49 9.4 72 72 VRB 6 9 30.14 1021 10 16 0.00 0.00
6:53 am 06:53 Mostly Cloudy 58 14.4 49 9.4 72 72 N 9 15 30.16 1021 10 16 0.00 0.00
7:53 am 07:53 Mostly Cloudy 59 15 49 9.4 69 69 NNE 6 9 30.18 1022 10 16 0.00 0.00
8:53 am 08:53 Mostly Cloudy 61 16.1 49 9.4 65 65 NE 6 9 30.19 1022 10 16 0.00 0.00
9:53 am 09:53 Partly Cloudy 63 17.2 50 10 63 63 NE 6 9 30.18 1022 10 16 0.00 0.00
10:53 am 10:53 Mostly Cloudy 63 17.2 49 9.4 60 60 VRB 3 6 30.19 1022 10 16 0.00 0.00
11:53 am 11:53 Partly Cloudy 65 18.3 49 9.4 56 56 Calm 30.19 1022 10 16 0.00 0.00
12:53 pm 12:53 Mostly Sunny 66 18.9 49 9.4 54 54 S 5 7 30.18 1022 10 16 0.00 0.00
1:53 pm 13:53 Mostly Sunny 68 20 49 9.4 51 51 VRB 6 9 30.16 1021 10 16 0.00 0.00
2:53 pm 14:53 Mostly Sunny 69 20.6 48 8.9 47 47 SW 5 7 30.15 1021 10 16 0.00 0.00
3:53 pm 15:53 Mostly Sunny 71 21.7 48 8.9 44 44 VRB 3 6 30.14 1021 10 16 0.00 0.00
4:53 pm 16:53 Mostly Sunny 72 22.2 51 10.6 48 48 N 5 7 30.12 1020 10 16 0.00 0.00
5:53 pm 17:53 Mostly Sunny 71 21.7 50 10 47 47 Calm 30.12 1020 10 16 0.00 0.00
6:53 pm 18:53 Partly Cloudy 69 20.6 50 10 51 51 SSE 8 13 30.11 1020 10 16 0.00 0.00
7:53 pm 19:53 Mostly Clear 69 20.6 51 10.6 53 53 WSW 6 9 30.11 1020 10 16 0.00 0.00
8:53 pm 20:53 Mostly Clear 68 20 51 10.6 55 55 W 6 9 30.12 1020 10 16 0.00 0.00
9:53 pm 21:53 Mostly Clear 66 18.9 53 11.7 63 63 S 5 7 30.11 1020 10 16 0.00 0.00
10:53 pm 22:53 Mostly Clear 61 16.1 53 11.7 75 75 SSE 7 11 30.11 1020 10 16 0.00 0.00
11:53 pm 23:53 Mostly Clear 61 16.1 53 11.7 75 75 SSE 7 11 30.11 1020 10 16 0.00 0.00

Powered by AerisWeather